Fort Collins, CO

6:56 AM MDT on August 27, 2016 (GMT -0600)
Fort Collins-Loveland Municipal

Weather History for KFNL - October, 2010

Change the Weather History Date:

Sunday, October 10, 2010

  Actual Average Record
Temperature  
Mean Temperature 55 °F -  
Max Temperature 62 °F - 84 °F (2015)
Min Temperature 48 °F - 28 °F (2012)
Degree Days  
Heating Degree Days 10    
Month to date heating degree days  
Cooling Degree Days 0    
Month to date cooling degree days  
Growing Degree Days 5 (Base 50)    
Moisture  
Dew Point 41 °F    
Average Humidity 63    
Maximum Humidity 87    
Minimum Humidity 42    
Precipitation  
Precipitation 0.08 in - 2.10 in (2005)
Sea Level Pressure  
Sea Level Pressure 30.13 in    
Wind  
Wind Speed 8 mph (NNW)    
Max Wind Speed 23 mph    
Max Gust Speed 38 mph    
Visibility 10 miles    
Events      
T = Trace of Precipitation, MM = Missing Value Source: NWS Daily Summary

Daily Weather History Graph

Daily Weather History Graph

Search for Another Location

Airport or City:

Trip Planner

Search our weather history database for the weather conditions in past years. The results will help you decide how hot, cold, wet, or windy it might be!

Date:

Astronomy

Oct. 10, 2010 Rise Set
Actual Time 7:05 AM MDT 6:27 PM MDT
Civil Twilight 6:38 AM MDT 6:54 PM MDT
Nautical Twilight 6:06 AM MDT 7:26 PM MDT
Astronomical Twilight 5:35 AM MDT 7:58 PM MDT
Moon 10:41 AM MDT (10/10) 8:12 PM MDT (10/10)
Length of Visible Light 12h 16m
Length of Day
11h 21m
Waxing Crescent, 12% of the Moon is Illuminated
Oct 10
Waxing Crescent
Oct 14
First Quarter
Oct 22
Full
Oct 30
Last Quarter
Nov 5
New

Hourly Weather History & Observations

Time (MDT) Temp. Dew Point Humidity Pressure Visibility Wind Dir Wind Speed Gust Speed Precip Events Conditions
12:15 AM 53.6 °F 39.2 °F 58% 30.15 in 10.0 mi ESE 3.5 mph - N/A   Overcast
12:35 AM 53.6 °F 39.2 °F 58% 30.14 in 10.0 mi South 6.9 mph - N/A   Overcast
12:55 AM 51.8 °F 39.2 °F 62% 30.14 in 10.0 mi Calm Calm - N/A   Overcast
1:15 AM 51.8 °F 39.2 °F 62% 30.14 in 10.0 mi ESE 4.6 mph - N/A   Overcast
1:35 AM 53.6 °F 37.4 °F 54% 30.14 in 10.0 mi ESE 5.8 mph - N/A   Overcast
1:55 AM 53.6 °F 37.4 °F 54% 30.15 in 10.0 mi East 4.6 mph - N/A   Overcast
2:15 AM 51.8 °F 39.2 °F 62% 30.16 in 10.0 mi Calm Calm - N/A   Overcast
2:35 AM 53.6 °F 37.4 °F 54% 30.16 in 10.0 mi WNW 4.6 mph - N/A   Overcast
2:55 AM 55.4 °F 37.4 °F 51% 30.15 in 10.0 mi WNW 5.8 mph - N/A   Overcast
3:15 AM 57.2 °F 35.6 °F 44% 30.15 in 10.0 mi NW 8.1 mph 18.4 mph N/A   Overcast
3:35 AM 57.2 °F 35.6 °F 44% 30.15 in 10.0 mi NNW 12.7 mph 17.3 mph N/A   Overcast
3:55 AM 57.2 °F 35.6 °F 44% 30.14 in 10.0 mi NW 12.7 mph 17.3 mph N/A   Overcast
4:15 AM 57.2 °F 35.6 °F 44% 30.15 in 10.0 mi NW 16.1 mph 20.7 mph N/A   Overcast
4:35 AM 55.4 °F 35.6 °F 47% 30.15 in 10.0 mi NW 12.7 mph - N/A   Mostly Cloudy
4:55 AM 53.6 °F 35.6 °F 51% 30.16 in 10.0 mi NW 10.4 mph - N/A   Mostly Cloudy
5:15 AM 53.6 °F 35.6 °F 51% 30.16 in 10.0 mi NNW 8.1 mph - N/A   Partly Cloudy
5:35 AM 51.8 °F 35.6 °F 54% 30.14 in 10.0 mi NW 6.9 mph - N/A   Clear
5:55 AM 51.8 °F 35.6 °F 54% 30.13 in 10.0 mi WNW 5.8 mph - N/A   Clear
6:15 AM 53.6 °F 37.4 °F 54% 30.13 in 10.0 mi NNW 5.8 mph - N/A   Mostly Cloudy
6:35 AM 53.6 °F 35.6 °F 51% 30.12 in 10.0 mi NNW 3.5 mph - N/A   Overcast
7:15 AM 55.4 °F 35.6 °F 47% 30.13 in 10.0 mi NW 11.5 mph 17.3 mph N/A   Overcast
7:35 AM 55.4 °F 37.4 °F 51% 30.13 in 10.0 mi NNW 15.0 mph 23.0 mph N/A   Overcast
7:55 AM 55.4 °F 39.2 °F 54% 30.15 in 10.0 mi North 20.7 mph 28.8 mph N/A   Overcast
8:15 AM 51.8 °F 39.2 °F 62% 30.16 in 10.0 mi North 23.0 mph 29.9 mph N/A   Overcast
8:35 AM 50.0 °F 37.4 °F 62% 30.16 in 10.0 mi North 17.3 mph 24.2 mph N/A   Overcast
8:55 AM 50.0 °F 37.4 °F 62% 30.17 in 10.0 mi NNW 18.4 mph 27.6 mph N/A   Overcast
9:15 AM 48.2 °F 39.2 °F 71% 30.18 in 10.0 mi NW 17.3 mph - N/A   Overcast
9:35 AM 48.2 °F 41.0 °F 76% 30.18 in 10.0 mi NW 13.8 mph - N/A   Overcast
9:55 AM 48.2 °F 41.0 °F 76% 30.18 in 10.0 mi NW 17.3 mph 21.9 mph N/A   Overcast
10:15 AM 48.2 °F 42.8 °F 82% 30.18 in 10.0 mi NNW 12.7 mph - N/A   Overcast
10:35 AM 48.2 °F 42.8 °F 82% 30.17 in 10.0 mi NNW 12.7 mph - N/A   Mostly Cloudy
10:55 AM 48.2 °F 42.8 °F 82% 30.17 in 10.0 mi NNW 9.2 mph - N/A   Overcast
11:15 AM 50.0 °F 42.8 °F 76% 30.16 in 10.0 mi NNW 9.2 mph - N/A   Overcast
11:35 AM 50.0 °F 42.8 °F 76% 30.16 in 10.0 mi North 9.2 mph - N/A   Overcast
11:55 AM 51.8 °F 42.8 °F 71% 30.15 in 10.0 mi North 6.9 mph - N/A   Overcast
12:15 PM 53.6 °F 42.8 °F 67% 30.15 in 10.0 mi North 9.2 mph - N/A   Overcast
12:35 PM 53.6 °F 44.6 °F 72% 30.14 in 10.0 mi North 9.2 mph - N/A   Overcast
12:55 PM 55.4 °F 44.6 °F 67% 30.13 in 10.0 mi North 6.9 mph - N/A   Mostly Cloudy
1:15 PM 57.2 °F 44.6 °F 63% 30.12 in 10.0 mi North 11.5 mph - N/A   Mostly Cloudy
1:35 PM 59.0 °F 44.6 °F 59% 30.10 in 10.0 mi NNW 13.8 mph 18.4 mph N/A   Overcast
1:55 PM 60.8 °F 41.0 °F 48% 30.10 in 10.0 mi NNW 17.3 mph 26.5 mph N/A   Overcast
2:15 PM 59.0 °F 39.2 °F 48% 30.10 in 10.0 mi NNW 20.7 mph 32.2 mph N/A   Overcast
2:35 PM 59.0 °F 39.2 °F 48% 30.09 in 10.0 mi NNW 19.6 mph 25.3 mph N/A   Overcast
3:15 PM 59.0 °F 42.8 °F 55% 30.08 in 10.0 mi NNW 12.7 mph 17.3 mph N/A   Mostly Cloudy
3:35 PM 60.8 °F 41.0 °F 48% 30.08 in 10.0 mi NNW 15.0 mph 20.7 mph N/A   Overcast
3:55 PM 62.6 °F 39.2 °F 42% 30.08 in 10.0 mi NNW 18.4 mph 24.2 mph N/A   Mostly Cloudy
4:15 PM 57.2 °F 42.8 °F 59% 30.08 in 10.0 mi North 20.7 mph 25.3 mph N/A   Overcast
4:35 PM 51.8 °F 44.6 °F 76% 30.10 in 7.0 mi North 12.7 mph 38.0 mph 0.04 in   Overcast
4:55 PM 50.0 °F 46.4 °F 87% 30.09 in 10.0 mi Calm Calm - 0.05 in   Overcast
5:15 PM 51.8 °F 46.4 °F 82% 30.10 in 10.0 mi NNW 12.7 mph - N/A   Overcast
5:35 PM 51.8 °F 46.4 °F 82% 30.10 in 9.0 mi NNW 10.4 mph 23.0 mph 0.02 in   Overcast
5:55 PM 51.8 °F 46.4 °F 82% 30.08 in 10.0 mi NNE 3.5 mph - 0.03 in   Overcast
6:15 PM 51.8 °F 46.4 °F 82% 30.08 in 10.0 mi NW 5.8 mph - N/A   Overcast
6:35 PM 50.0 °F 44.6 °F 82% 30.08 in 10.0 mi North 6.9 mph - N/A   Scattered Clouds
6:55 PM 50.0 °F 44.6 °F 82% 30.09 in 10.0 mi North 4.6 mph - N/A   Mostly Cloudy
7:15 PM 48.2 °F 44.6 °F 87% 30.09 in 10.0 mi Calm Calm - N/A   Mostly Cloudy
7:35 PM 48.2 °F 44.6 °F 87% 30.09 in 10.0 mi Calm Calm - N/A   Overcast
7:55 PM 51.8 °F 42.8 °F 71% 30.09 in 10.0 mi Calm Calm - N/A   Overcast
8:15 PM 51.8 °F 42.8 °F 71% 30.10 in 10.0 mi Calm Calm - N/A   Overcast
8:35 PM 51.8 °F 44.6 °F 76% 30.10 in 10.0 mi South 3.5 mph - N/A   Overcast
8:55 PM 51.8 °F 46.4 °F 82% 30.10 in 10.0 mi East 4.6 mph - N/A   Overcast
9:15 PM 50.0 °F 44.6 °F 82% 30.11 in 10.0 mi East 5.8 mph - N/A   Mostly Cloudy
9:35 PM 50.0 °F 44.6 °F 82% 30.11 in 10.0 mi SE 5.8 mph - N/A   Mostly Cloudy
9:55 PM 48.2 °F 44.6 °F 87% 30.11 in 10.0 mi SSE 5.8 mph - N/A   Overcast
10:15 PM 48.2 °F 44.6 °F 87% 30.11 in 10.0 mi South 5.8 mph - N/A   Mostly Cloudy
10:35 PM 48.2 °F 44.6 °F 87% 30.11 in 10.0 mi South 5.8 mph - N/A   Mostly Cloudy
10:55 PM 48.2 °F 44.6 °F 87% 30.11 in 10.0 mi South 5.8 mph - N/A   Mostly Cloudy
11:15 PM 48.2 °F 44.6 °F 87% 30.11 in 10.0 mi SSE 4.6 mph - N/A   Mostly Cloudy
11:35 PM 48.2 °F 44.6 °F 87% 30.11 in 10.0 mi ESE 5.8 mph - N/A   Overcast
11:55 PM 48.2 °F 44.6 °F 87% 30.11 in 10.0 mi East 4.6 mph - N/A   Mostly Cloudy